Location: Fontevrault
(47.1823°N, 0.0493°E)
Time: 03:46:17
(UTC+00:00)

Cosmos 1459 Rocket - Pass Details

Date: 25 October 2021
Orbit: 936 x 1000 km, 83.0° (Epoch: 01 December)

Event Time Altitude Azimuth Distance (km) Brightness Sun altitude
Rises 18:38:50 0° 163° (SSE) 3,656 6.8 -18.4°
Reaches altitude 10° 18:41:29 10° 157° (SSE) 2,704 6.1 -18.8°
Maximum altitude 18:47:12 41° 89° (E) 1,358 4.3 -19.8°
Drops below altitude 10° 18:52:52 10° 21° (NNE) 2,682 6.1 -20.7°
Sets 18:55:28 0° 15° (NNE) 3,625 6.9 -21.2°
